SCP
0 0 0 0 0 0 0 0 0 0 0 0 0 0 0 0 0 0 0 0 -0 -0 -0 0 0 0 0 0 0 0 0 0 0 0 0 0 0 0 0 0 0 0 0 0 0
0 0 0 0 0 0 0 0 0 0 0 0 0 0 0 0 0 -0 0 -0 -0 -0 0 0 0 0 0 0 0 0 0 0 0 0 0 0 0 0 0 0 0 0 0 0 0
0 0 0 0 0 0 0 0 0 0 0 0 0 0 0 0 0 0 -0 -0 -0 0 0 0 0 0 0 0 0 0 0 0 0 0 0 0 0 0 0 0 0 0 0 0 0
0 0 0 0 0 0 0 0 0 0 0 0 0 0 0 0 0 0 -0 -0 0 0 0 0 0 0 0 0 0 0 0 0 0 0 0 0 0 0 0 0 0 0 0 0 0
0 0 0 0 0 0 0 0 0 0 0 0 0 0 0 0 0 0 0 0 0 0 0 0 0 0 0 0 0 0 0 0 0 0 0 0 0 0 0 0 0 0 0 0 0
0 0 0 0 0 0 0 0 0 0 0 0 0 0 0 0 0 0 0 0 0 0 0 0 0 0 0 0 0 0 0 0 0 0 0 0 0 0 0 0 0 0 0 0 0
0 0 0 0 0 0 0 0 0 0 0 0 0 0 0 0 0 0 0 0 0 0 0 0 0 0 0 0 0 0 0 0 0 0 0 0 0 0 0 0 0 0 0 0 0
0 0 0 0 0 0 0 0 0 0 0 0 0 0 0 0 0 0 0 0 0 0 0 0 0 0 0 0 0 0 0 0 0 0 0 0 0 0 0 0 0 0 0 0 0
0 0 0 0 0 0 0 0 0 0 0 0 0 0 0 0 0 0 0 0 0 0 0 0 0 0 0 0 0 0 0 0 0 0 0 0 0 0 0 0 0 0 0 0 0
0 0 0 0 0 0 0 0 0 0 0 0 0 0 0 0 0 0 0 0 0 0 0 0 0 0 0 0 0 0 0 0 0 0 0 0 0 0 0 0 0 0 0 0 0
0 0 0 0 0 0 0 0 0 0 0 0 0 0 0 0 0 0 0 0 0 0 0 0 0 0 0 0 0 0 0 0 0 0 0 0 0 0 0 0 0 0 0 0 0
0 0 0 0 0 0 0 0 0 0 0 0 0 0 0 0 0 0 0 0 0 0 0 0 0 0 0 0 0 0 0 0 0 0 0 0 0 0 0 0 0 0 0 0 0
0 0 0 0 0 0 0 0 0 0 0 0 0 0 0 0 0 0 0 0 0 0 0 0 0 0 0 0 0 0 0 0 0 0 0 0 0 0 0 0 0 0 0 0 0
0 0 0 0 0 0 0 0 0 0 0 0 0 0 0 0 0 0 0 0 0 0 0 0 0 0 0 0 0 0 0 0 0 0 0 0 0 0 0 0 0 0 0 0 0
0 0 0 0 0 0 0 0 0 0 0 0 0 0 0 0 0 0 0 0 0 0 0 0 0 0 0 0 0 0 0 0 0 0 0 0 0 0 0 0 0 0 0 0 0
0 0 0 0 0 0 0 0 0 0 0 0 0 0 0 0 0 0 0 0 0 0 0 0 0 0 0 0 0 0 0 0 0 0 0 0 0 0 0 0 0 0 0 0 0
0 0 0 0 0 0 0 0 0 0 0 0 0 0 0 0 0 0 0 0 0 0 0 0 0 0 0 0 0 0 0 0 0 0 0 0 0 0 0 0 0 0 0 0 0
0 0 0 0 0 0 0 0 0 0 0 0 0 0 0 0 0 0 0 0 0 0 0 0 0 0 0 0 0 0 0 0 0 0 0 0 0 0 0 0 0 0 0 0 0
0 0 0 0 0 0 0 0 0 0 0 0 0 0 0 0 0 0 0 0 0 0 0 0 0 0 0 0 0 0 0 0 0 0 0 0 0 0 0 0 0 0 0 0 0
0 0 0 0 0 0 0 0 0 0 0 0 0 0 0 0 0 0 0 0 0 0 0 0 0 0 0 0 0 0 0 0 0 0 0 0 0 0 0 0 0 0 0 0 0
0 0 0 0 0 0 0 0 0 0 0 0 0 0 0 0 0 0 0 0 0 0 0 0 0 0 0 0 0 0 0 0 0 0 0 0 0 0 0 0 0 0 0 0 0
0 0 0 0 0 0 0 0 0 0 0 0 0 0 0 0 0 0 0 0 0 0 0 0 0 0 0 0 0 0 0 0 0 0 0 0 0 0 0 0 0 0 0 0 0
0 0 0 0 0 0 0 0 0 0 0 0 0 0 0 0 0 0 0 0 0 0 0 0 0 0 0 0 0 0 0 0 0 0 0 0 0 0 0 0 0 0 0 0 0
0 0 0 0 0 0 0 0 0 0 0 0 0 0 0 0 0 0 0 0 0 0 0 0 0 0 0 0 0 0 0 0 0 0 0 0 0 0 0 0 0 0 0 0 0
0 0 0 0 0 0 0 0 0 0 0 0 0 0 0 0 0 0 0 0 0 0 0 0 0 0 0 0 0 0 0 0 0 0 0 0 0 0 0 0 0 0 0 0 0
0 0 0 0 0 0 0 0 0 0 0 0 0 0 0 0 0 0 0 0 0 0 0 0 0 0 0 0 0 0 0 0 0 0 0 0 0 0 0 0 0 0 0 0 0
0 0 0 0 0 0 0 0 0 0 0 0 0 0 0 0 0 0 0 0 0 0 0 0 0 0 0 0 0 0 0 0 0 0 0 0 0 0 0 0 0 0 0 0 0
Wind_Speed_500mb
9 7 5 3 4 5 6 8 11 11 12 14 14 14 15 16 14 8 20 21 22 17 14 15 16 19 20 23 20 12 8 16 12 17 15 8 9 10 15 31 38 17 19 14 27
10 8 7 6 7 8 8 9 11 12 13 14 17 18 20 23 25 25 21 19 15 14 15 14 14 10 13 12 13 11 9 8 7 16 19 15 13 12 15 24 25 26 21 22 30
12 11 9 8 10 12 11 10 11 13 13 14 13 9 6 7 8 15 15 14 12 12 13 15 17 18 16 15 16 12 10 24 15 20 19 21 27 8 21 19 16 17 19 26 32
14 12 11 10 12 12 11 11 12 11 14 14 13 8 5 7 3 8 12 12 12 10 9 11 11 11 11 12 10 19 17 13 11 9 14 18 19 29 30 14 18 20 22 28 39
16 15 14 13 14 14 13 13 13 14 13 14 12 9 8 13 12 10 12 12 12 11 9 19 26 15 12 17 35 30 19 17 18 22 23 28 28 30 28 18 18 21 27 34 38
20 18 16 15 15 15 13 13 14 15 14 13 11 9 10 8 10 12 14 14 13 14 13 13 23 35 26 12 10 16 31 25 19 21 12 27 20 4 14 2 15 23 30 32 39
24 22 19 17 17 16 14 14 15 15 16 15 15 17 16 11 12 12 14 15 17 21 28 29 23 11 18 26 20 22 23 22 20 9 12 26 17 17 16 18 27 27 27 31 38
26 23 23 21 18 16 15 15 15 14 14 14 12 10 13 17 13 11 13 17 20 23 31 34 32 36 15 35 10 8 7 9 7 11 3 10 7 21 15 24 29 26 25 28 38
29 26 24 22 21 18 17 17 16 15 13 12 9 10 13 14 11 12 12 17 19 21 24 21 17 20 14 14 9 4 9 10 9 15 4 7 17 12 15 20 26 25 25 26 28
35 31 28 26 25 23 21 20 17 15 15 15 15 11 13 10 12 13 14 15 11 19 16 8 11 7 5 6 10 13 10 6 9 10 22 26 23 16 14 17 21 22 22 22 25
38 35 32 28 27 27 28 27 17 8 9 10 8 19 23 18 13 10 13 15 13 5 5 9 5 7 7 3 4 17 17 15 7 6 7 17 21 15 13 15 16 17 16 19 24
43 39 36 32 32 32 33 17 14 13 23 17 18 18 21 17 10 8 10 4 5 6 2 5 8 8 11 8 14 15 21 8 7 9 6 18 18 14 13 10 7 10 13 15 17
49 43 39 36 35 35 35 21 19 20 12 6 10 9 9 10 9 5 8 11 10 7 5 6 10 12 6 9 14 8 5 8 3 8 12 21 11 15 10 13 12 11 9 13 20
54 48 45 40 34 37 35 27 23 15 6 6 2 2 4 10 8 9 12 8 7 10 12 13 4 8 13 7 1 7 6 13 11 8 4 5 5 20 19 13 10 8 10 14 16
58 55 52 52 22 47 29 32 26 13 1 9 5 8 7 5 13 5 9 8 11 10 6 6 11 15 8 7 2 9 9 11 6 4 4 10 7 10 24 19 17 10 6 8 12
62 59 59 55 32 40 37 38 25 8 11 6 6 9 8 7 3 7 5 12 17 11 19 8 3 3 6 11 6 30 16 12 6 2 6 7 7 17 22 35 22 14 7 5 6
63 64 61 58 40 44 50 42 7 8 3 10 8 10 5 8 6 2 6 11 9 12 9 5 2 3 8 16 9 3 10 3 4 5 5 4 7 13 27 16 24 24 14 5 3
62 65 66 60 45 52 60 6 9 6 11 5 9 15 9 11 5 6 11 10 9 5 10 15 9 15 5 3 10 15 7 5 8 7 4 4 12 4 13 22 20 18 13 8 2
62 64 63 64 54 65 44 9 19 16 18 27 9 8 8 6 6 8 14 10 15 23 7 12 6 4 3 1 4 11 10 7 14 1 4 6 8 10 17 23 25 23 17 12 6
74 60 59 63 63 68 7 24 12 10 22 8 16 5 17 16 16 17 21 10 11 18 4 13 10 1 6 1 9 4 15 6 1 6 10 8 10 15 29 37 33 32 26 19 12
79 33 46 63 67 30 16 13 11 17 19 15 12 12 9 17 19 15 13 5 9 14 7 11 4 7 6 16 18 8 7 2 3 4 7 6 9 7 30 37 40 40 30 24 19
68 10 60 72 19 10 19 13 16 17 10 7 10 9 16 19 13 18 25 3 23 29 14 9 9 9 8 3 4 4 8 16 8 11 3 4 13 0 9 27 47 38 29 24 21
68 21 68 80 21 10 2 13 16 14 15 15 10 5 6 16 9 8 11 4 13 17 14 15 5 7 3 3 3 12 13 6 7 2 17 11 9 3 12 27 36 35 29 26 24
56 12 17 49 30 26 21 23 16 12 14 15 12 12 11 7 5 12 9 3 8 10 4 14 5 9 15 7 9 13 21 27 12 10 12 21 8 14 23 26 36 33 29 29 27
53 15 39 20 31 17 37 35 45 16 5 20 4 15 21 11 7 9 7 8 4 9 8 4 8 6 3 4 6 7 16 36 32 29 23 14 28 33 32 36 55 43 32 32 32
40 23 30 18 60 36 40 40 57 19 25 19 13 33 12 21 19 19 17 12 11 9 10 7 6 3 6 8 7 11 24 33 40 30 27 21 24 13 19 31 39 55 47 40 40
67 78 66 44 35 40 48 42 43 38 18 17 36 20 25 14 25 25 8 26 27 21 16 14 13 7 12 3 6 17 43 39 22 27 29 29 35 23 14 32 54 65 59 54 46
Wind_Direction_500mb
242 245 237 199 152 138 122 113 110 110 112 113 118 117 113 102 75 108 64 55 50 64 73 81 85 86 84 61 61 79 92 116 121 143 126 110 140 73 80 93 68 69 73 39 14
224 226 219 180 154 144 139 130 123 115 116 122 129 121 114 103 83 75 66 59 58 69 80 94 90 82 68 35 32 49 95 102 88 110 118 97 100 101 120 105 91 75 61 39 28
222 212 201 183 160 156 151 142 127 123 126 131 144 139 132 133 102 38 55 66 62 74 85 90 94 84 62 43 23 34 103 124 97 106 120 108 78 70 126 79 55 79 55 42 39
217 210 198 182 166 165 156 141 127 127 131 139 141 131 114 141 182 39 56 67 69 70 85 87 107 70 62 57 24 104 87 107 112 100 109 109 105 74 64 68 96 84 66 53 47
213 211 197 184 174 169 160 148 137 136 137 140 139 137 123 89 75 57 57 70 69 67 99 98 95 93 89 100 86 98 110 81 97 92 86 112 96 94 82 98 95 80 67 55 50
204 203 201 187 176 171 162 152 144 144 142 138 141 135 134 88 85 70 64 64 78 83 95 109 104 108 89 66 43 115 106 106 97 81 94 111 78 69 44 187 103 91 71 60 51
206 195 194 189 182 175 163 155 149 150 147 140 131 110 121 112 110 90 85 91 94 97 105 107 113 114 107 105 113 110 101 102 45 15 114 122 53 28 3 115 108 83 73 64 54
208 202 192 186 186 175 163 156 150 152 146 142 143 140 93 116 104 100 101 99 99 105 107 98 102 99 84 119 81 97 130 146 38 9 140 231 92 33 72 116 100 89 74 62 54
206 203 198 191 181 179 166 157 154 150 146 143 142 130 123 124 109 109 124 115 111 115 108 103 96 89 102 123 116 52 154 127 137 9 271 229 127 66 89 109 95 82 72 63 55
206 201 198 195 183 177 169 155 148 142 137 134 131 119 134 131 121 112 121 132 117 123 105 87 67 93 94 201 190 172 148 130 129 36 73 97 113 105 82 96 88 79 70 61 53
209 201 199 195 186 181 172 148 140 119 136 104 111 114 136 132 120 120 128 121 120 82 71 28 128 133 99 344 51 115 129 126 111 88 101 111 122 106 91 92 88 79 74 58 45
208 203 199 195 188 185 181 183 192 151 107 95 107 113 135 139 119 112 139 108 81 91 5 94 99 106 98 86 100 106 127 100 100 39 122 149 120 107 98 79 101 103 77 52 37
207 199 198 195 189 190 191 198 166 148 86 86 112 125 135 147 115 105 132 108 86 87 25 117 120 141 102 107 108 59 120 156 96 116 67 146 164 168 114 110 106 96 88 54 35
206 198 196 192 191 193 193 184 169 158 99 153 133 90 123 142 71 109 113 122 71 116 97 82 111 139 123 120 10 135 72 106 118 193 220 262 232 202 175 163 156 127 85 56 40
204 199 192 192 189 187 188 173 164 147 255 79 130 144 117 122 131 79 105 90 117 116 208 118 158 151 149 117 147 115 105 94 102 130 236 184 247 114 172 202 192 160 102 67 44
205 198 194 194 194 185 171 161 147 64 240 154 139 155 136 71 47 116 98 91 118 89 58 100 67 10 75 66 86 137 102 80 84 146 233 154 239 190 189 217 186 183 165 109 54
207 200 195 192 193 178 164 151 66 178 86 181 176 166 145 134 119 99 157 154 165 130 157 129 73 83 145 103 111 126 138 166 216 207 239 113 253 295 196 183 180 174 171 144 62
206 198 194 194 187 175 164 90 175 200 185 125 124 125 181 163 130 140 141 190 222 152 142 166 202 188 161 267 182 180 191 224 272 219 115 148 232 251 190 175 173 173 175 178 157
196 197 195 189 183 176 167 193 192 188 155 143 105 130 185 185 151 167 194 207 204 193 188 155 132 89 28 165 256 162 205 101 105 114 236 205 266 221 176 193 197 194 191 202 197
193 192 200 183 179 177 162 212 201 137 123 166 156 158 175 180 164 189 187 188 185 189 229 173 115 190 139 146 54 257 138 128 213 223 247 207 265 244 202 208 202 202 203 202 195
190 178 197 181 174 184 202 213 183 178 141 154 165 134 168 174 185 179 190 175 160 155 159 149 139 141 158 208 186 149 191 68 110 225 244 282 233 199 209 203 198 199 197 193 189
175 181 174 175 166 189 203 184 168 157 170 142 120 110 162 164 158 198 199 220 160 153 172 195 119 162 183 56 325 295 220 183 212 194 222 330 265 306 236 200 192 188 187 188 193
167 153 173 175 199 193 194 195 189 143 178 159 143 133 146 163 162 178 179 22 163 167 159 187 164 118 201 207 181 224 201 173 88 95 193 186 246 66 149 168 182 179 184 189 193
160 131 169 207 235 181 166 191 184 180 157 149 126 117 122 115 14 156 144 141 178 165 126 137 170 201 231 125 132 196 197 190 190 192 178 227 255 202 196 193 193 193 192 193 195
180 177 169 187 207 183 183 170 190 159 208 165 136 210 158 122 110 159 131 133 90 154 113 131 230 189 218 223 225 229 198 194 204 210 209 223 219 240 198 201 202 194 193 195 200
170 150 171 151 174 178 190 200 190 175 151 208 201 188 176 157 184 178 142 187 177 155 170 151 188 152 258 224 226 249 231 213 218 221 255 250 264 195 204 191 190 202 203 203 205
189 193 169 166 170 180 200 185 196 175 205 199 180 149 191 167 116 122 69 138 143 152 164 157 141 130 260 36 290 261 217 211 200 206 212 217 233 152 183 195 204 206 212 215 210
Wind_Speed_850mb
9 7 5 3 4 5 6 8 11 11 12 14 14 14 15 16 14 8 20 21 22 17 14 15 16 19 20 23 20 12 8 16 12 17 15 8 9 10 15 31 38 17 19 14 27
10 8 7 6 7 8 8 9 11 12 13 14 17 18 20 23 25 25 21 19 15 14 15 14 14 10 13 12 13 11 9 8 7 16 19 15 13 12 15 24 25 26 21 22 30
12 11 9 8 10 12 11 10 11 13 13 14 13 9 6 7 8 15 15 14 12 12 13 15 17 18 16 15 16 12 10 24 15 20 19 21 27 8 21 19 16 17 19 26 32
14 12 11 10 12 12 11 11 12 11 14 14 13 8 5 7 3 8 12 12 12 10 9 11 11 11 11 12 10 19 17 13 11 9 14 18 19 29 30 14 18 20 22 28 39
16 15 14 13 14 14 13 13 13 14 13 14 12 9 8 13 12 10 12 12 12 11 9 19 26 15 12 17 35 30 19 17 18 22 23 28 28 30 28 18 18 21 27 34 38
20 18 16 15 15 15 13 13 14 15 14 13 11 9 10 8 10 12 14 14 13 14 13 13 23 35 26 12 10 16 31 25 19 21 12 27 20 4 14 2 15 23 30 32 39
24 22 19 17 17 16 14 14 15 15 16 15 15 17 16 11 12 12 14 15 17 21 28 29 23 11 18 26 20 22 23 22 20 9 12 26 17 17 16 18 27 27 27 31 38
26 23 23 21 18 16 15 15 15 14 14 14 12 10 13 17 13 11 13 17 20 23 31 34 32 36 15 35 10 8 7 9 7 11 3 10 7 21 15 24 29 26 25 28 38
29 26 24 22 21 18 17 17 16 15 13 12 9 10 13 14 11 12 12 17 19 21 24 21 17 20 14 14 9 4 9 10 9 15 4 7 17 12 15 20 26 25 25 26 28
35 31 28 26 25 23 21 20 17 15 15 15 15 11 13 10 12 13 14 15 11 19 16 8 11 7 5 6 10 13 10 6 9 10 22 26 23 16 14 17 21 22 22 22 25
38 35 32 28 27 27 28 27 17 8 9 10 8 19 23 18 13 10 13 15 13 5 5 9 5 7 7 3 4 17 17 15 7 6 7 17 21 15 13 15 16 17 16 19 24
43 39 36 32 32 32 33 17 14 13 23 17 18 18 21 17 10 8 10 4 5 6 2 5 8 8 11 8 14 15 21 8 7 9 6 18 18 14 13 10 7 10 13 15 17
49 43 39 36 35 35 35 21 19 20 12 6 10 9 9 10 9 5 8 11 10 7 5 6 10 12 6 9 14 8 5 8 3 8 12 21 11 15 10 13 12 11 9 13 20
54 48 45 40 34 37 35 27 23 15 6 6 2 2 4 10 8 9 12 8 7 10 12 13 4 8 13 7 1 7 6 13 11 8 4 5 5 20 19 13 10 8 10 14 16
58 55 52 52 22 47 29 32 26 13 1 9 5 8 7 5 13 5 9 8 11 10 6 6 11 15 8 7 2 9 9 11 6 4 4 10 7 10 24 19 17 10 6 8 12
62 59 59 55 32 40 37 38 25 8 11 6 6 9 8 7 3 7 5 12 17 11 19 8 3 3 6 11 6 30 16 12 6 2 6 7 7 17 22 35 22 14 7 5 6
63 64 61 58 40 44 50 42 7 8 3 10 8 10 5 8 6 2 6 11 9 12 9 5 2 3 8 16 9 3 10 3 4 5 5 4 7 13 27 16 24 24 14 5 3
62 65 66 60 45 52 60 6 9 6 11 5 9 15 9 11 5 6 11 10 9 5 10 15 9 15 5 3 10 15 7 5 8 7 4 4 12 4 13 22 20 18 13 8 2
62 64 63 64 54 65 44 9 19 16 18 27 9 8 8 6 6 8 14 10 15 23 7 12 6 4 3 1 4 11 10 7 14 1 4 6 8 10 17 23 25 23 17 12 6
74 60 59 63 63 68 7 24 12 10 22 8 16 5 17 16 16 17 21 10 11 18 4 13 10 1 6 1 9 4 15 6 1 6 10 8 10 15 29 37 33 32 26 19 12
79 33 46 63 67 30 16 13 11 17 19 15 12 12 9 17 19 15 13 5 9 14 7 11 4 7 6 16 18 8 7 2 3 4 7 6 9 7 30 37 40 40 30 24 19
68 10 60 72 19 10 19 13 16 17 10 7 10 9 16 19 13 18 25 3 23 29 14 9 9 9 8 3 4 4 8 16 8 11 3 4 13 0 9 27 47 38 29 24 21
68 21 68 80 21 10 2 13 16 14 15 15 10 5 6 16 9 8 11 4 13 17 14 15 5 7 3 3 3 12 13 6 7 2 17 11 9 3 12 27 36 35 29 26 24
56 12 17 49 30 26 21 23 16 12 14 15 12 12 11 7 5 12 9 3 8 10 4 14 5 9 15 7 9 13 21 27 12 10 12 21 8 14 23 26 36 33 29 29 27
53 15 39 20 31 17 37 35 45 16 5 20 4 15 21 11 7 9 7 8 4 9 8 4 8 6 3 4 6 7 16 36 32 29 23 14 28 33 32 36 55 43 32 32 32
40 23 30 18 60 36 40 40 57 19 25 19 13 33 12 21 19 19 17 12 11 9 10 7 6 3 6 8 7 11 24 33 40 30 27 21 24 13 19 31 39 55 47 40 40
67 78 66 44 35 40 48 42 43 38 18 17 36 20 25 14 25 25 8 26 27 21 16 14 13 7 12 3 6 17 43 39 22 27 29 29 35 23 14 32 54 65 59 54 46
Wind_Direction_850mb
242 245 237 199 152 138 122 113 110 110 112 113 118 117 113 102 75 108 64 55 50 64 73 81 85 86 84 61 61 79 92 116 121 143 126 110 140 73 80 93 68 69 73 39 14
224 226 219 180 154 144 139 130 123 115 116 122 129 121 114 103 83 75 66 59 58 69 80 94 90 82 68 35 32 49 95 102 88 110 118 97 100 101 120 105 91 75 61 39 28
222 212 201 183 160 156 151 142 127 123 126 131 144 139 132 133 102 38 55 66 62 74 85 90 94 84 62 43 23 34 103 124 97 106 120 108 78 70 126 79 55 79 55 42 39
217 210 198 182 166 165 156 141 127 127 131 139 141 131 114 141 182 39 56 67 69 70 85 87 107 70 62 57 24 104 87 107 112 100 109 109 105 74 64 68 96 84 66 53 47
213 211 197 184 174 169 160 148 137 136 137 140 139 137 123 89 75 57 57 70 69 67 99 98 95 93 89 100 86 98 110 81 97 92 86 112 96 94 82 98 95 80 67 55 50
204 203 201 187 176 171 162 152 144 144 142 138 141 135 134 88 85 70 64 64 78 83 95 109 104 108 89 66 43 115 106 106 97 81 94 111 78 69 44 187 103 91 71 60 51
206 195 194 189 182 175 163 155 149 150 147 140 131 110 121 112 110 90 85 91 94 97 105 107 113 114 107 105 113 110 101 102 45 15 114 122 53 28 3 115 108 83 73 64 54
208 202 192 186 186 175 163 156 150 152 146 142 143 140 93 116 104 100 101 99 99 105 107 98 102 99 84 119 81 97 130 146 38 9 140 231 92 33 72 116 100 89 74 62 54
206 203 198 191 181 179 166 157 154 150 146 143 142 130 123 124 109 109 124 115 111 115 108 103 96 89 102 123 116 52 154 127 137 9 271 229 127 66 89 109 95 82 72 63 55
206 201 198 195 183 177 169 155 148 142 137 134 131 119 134 131 121 112 121 132 117 123 105 87 67 93 94 201 190 172 148 130 129 36 73 97 113 105 82 96 88 79 70 61 53
209 201 199 195 186 181 172 148 140 119 136 104 111 114 136 132 120 120 128 121 120 82 71 28 128 133 99 344 51 115 129 126 111 88 101 111 122 106 91 92 88 79 74 58 45
208 203 199 195 188 185 181 183 192 151 107 95 107 113 135 139 119 112 139 108 81 91 5 94 99 106 98 86 100 106 127 100 100 39 122 149 120 107 98 79 101 103 77 52 37
207 199 198 195 189 190 191 198 166 148 86 86 112 125 135 147 115 105 132 108 86 87 25 117 120 141 102 107 108 59 120 156 96 116 67 146 164 168 114 110 106 96 88 54 35
206 198 196 192 191 193 193 184 169 158 99 153 133 90 123 142 71 109 113 122 71 116 97 82 111 139 123 120 10 135 72 106 118 193 220 262 232 202 175 163 156 127 85 56 40
204 199 192 192 189 187 188 173 164 147 255 79 130 144 117 122 131 79 105 90 117 116 208 118 158 151 149 117 147 115 105 94 102 130 236 184 247 114 172 202 192 160 102 67 44
205 198 194 194 194 185 171 161 147 64 240 154 139 155 136 71 47 116 98 91 118 89 58 100 67 10 75 66 86 137 102 80 84 146 233 154 239 190 189 217 186 183 165 109 54
207 200 195 192 193 178 164 151 66 178 86 181 176 166 145 134 119 99 157 154 165 130 157 129 73 83 145 103 111 126 138 166 216 207 239 113 253 295 196 183 180 174 171 144 62
206 198 194 194 187 175 164 90 175 200 185 125 124 125 181 163 130 140 141 190 222 152 142 166 202 188 161 267 182 180 191 224 272 219 115 148 232 251 190 175 173 173 175 178 157
196 197 195 189 183 176 167 193 192 188 155 143 105 130 185 185 151 167 194 207 204 193 188 155 132 89 28 165 256 162 205 101 105 114 236 205 266 221 176 193 197 194 191 202 197
193 192 200 183 179 177 162 212 201 137 123 166 156 158 175 180 164 189 187 188 185 189 229 173 115 190 139 146 54 257 138 128 213 223 247 207 265 244 202 208 202 202 203 202 195
190 178 197 181 174 184 202 213 183 178 141 154 165 134 168 174 185 179 190 175 160 155 159 149 139 141 158 208 186 149 191 68 110 225 244 282 233 199 209 203 198 199 197 193 189
175 181 174 175 166 189 203 184 168 157 170 142 120 110 162 164 158 198 199 220 160 153 172 195 119 162 183 56 325 295 220 183 212 194 222 330 265 306 236 200 192 188 187 188 193
167 153 173 175 199 193 194 195 189 143 178 159 143 133 146 163 162 178 179 22 163 167 159 187 164 118 201 207 181 224 201 173 88 95 193 186 246 66 149 168 182 179 184 189 193
160 131 169 207 235 181 166 191 184 180 157 149 126 117 122 115 14 156 144 141 178 165 126 137 170 201 231 125 132 196 197 190 190 192 178 227 255 202 196 193 193 193 192 193 195
180 177 169 187 207 183 183 170 190 159 208 165 136 210 158 122 110 159 131 133 90 154 113 131 230 189 218 223 225 229 198 194 204 210 209 223 219 240 198 201 202 194 193 195 200
170 150 171 151 174 178 190 200 190 175 151 208 201 188 176 157 184 178 142 187 177 155 170 151 188 152 258 224 226 249 231 213 218 221 255 250 264 195 204 191 190 202 203 203 205
189 193 169 166 170 180 200 185 196 175 205 199 180 149 191 167 116 122 69 138 143 152 164 157 141 130 260 36 290 261 217 211 200 206 212 217 233 152 183 195 204 206 212 215 210